This demonstration page uses our WeatherBlox Daily Observations layout. Learn more.

41.86663, -103.66717

Hourly Observations for September 22, 2020

Temp ( °F °C ) Dew Point ( °F °C ) Humidity (%) Winds ( mph kmh ) Pressure ( in mb ) Visibility ( mi km ) Precip ( " mm )
12:53 am 00:53 Clear 57 13.9 41 5 55 55 Calm 29.98 1015 10 16.0934 0 0
1:53 am 01:53 Clear 53 11.7 40 4.4 61 61 NNW 3 6 29.97 1015 10 16.0934 0 0
2:53 am 02:53 Clear 50 10 42 5.6 74 74 WNW 6 9 29.97 1015 10 16.0934 0 0
3:53 am 03:53 Clear 49 9.4 42 5.6 77 77 NW 7 11 29.98 1015 10 16.0934 0 0
4:53 am 04:53 Clear 48 8.9 41 5 77 77 NW 5 7 29.98 1015 10 16.0934 0 0
5:53 am 05:53 Clear 48 8.9 41 5 77 77 NW 6 9 30 1016 10 16.0934 0 0
6:53 am 06:53 Sunny 48 8.9 41 5 77 77 NW 3 6 30.02 1017 8 12.87472 0 0
7:53 am 07:53 Sunny 51 10.6 42 5.6 71 71 NW 7 11 30.04 1017 8 12.87472 0 0
8:53 am 08:53 Sunny 59 15 43 6.1 56 56 NW 7 11 30.03 1017 10 16.0934 0 0
9:53 am 09:53 Sunny 66 18.9 45 7.2 47 47 WNW 5 7 30.02 1017 10 16.0934 0 0
10:53 am 10:53 Sunny 74 23.3 47 8.3 38 38 Calm 29.99 1016 10 16.0934 0 0
11:53 am 11:53 Sunny 80 26.7 46 7.8 30 30 SSE 3 6 29.96 1015 10 16.0934 0 0
12:53 pm 12:53 Sunny 85 29.4 46 7.8 26 26 Calm 29.92 1013 10 16.0934 0 0
1:53 pm 13:53 Sunny 87 30.6 46 7.8 24 24 Calm 29.89 1012 10 16.0934 0 0
2:53 pm 14:53 Sunny 90 32.2 45 7.2 21 21 NW 6 9 29.86 1011 10 16.0934 0 0
3:53 pm 15:53 Sunny 90 32.2 42 5.6 19 19 NW 5 7 29.85 1011 10 16.0934 0 0
4:53 pm 16:53 Sunny 90 32.2 43 6.1 19 19 NW 3 6 29.85 1011 10 16.0934 0 0
5:53 pm 17:53 Sunny 86 30 43 6.1 22 22 S 3 6 29.86 1011 10 16.0934 0 0
6:53 pm 18:53 Clear 80 26.7 42 5.6 26 26 S 8 13 29.88 1012 9 14.48406 0 0
7:53 pm 19:53 Clear 74 23.3 41 5 31 31 Calm 29.89 1012 10 16.0934 0 0
8:53 pm 20:53 Clear 66 18.9 41 5 40 40 NNW 3 6 29.91 1013 10 16.0934 0 0
9:53 pm 21:53 Clear 64 17.8 42 5.6 45 45 Calm 29.91 1013 10 16.0934 0 0
10:53 pm 22:53 Clear 62 16.7 41 5 46 46 E 7 11 29.89 1012 10 16.0934 0 0
11:53 pm 23:53 Clear 63 17.2 41 5 45 45 Calm 29.89 1012 10 16.0934 0 0

Powered by AerisWeather